DW4063 Weather Reports


time (UTC)temp
F
wind
direction
speed
knots
gust
knots
rain 1hr
in
rain 24hr
in
rain mn
in
humidity
%
barometer
mb
20260906134525 71 144 0.0 0.0 0.00 0.00 0.00 93 1020.0
20260906133030 70 132 0.0 0.0 0.00 0.00 0.00 94 1020.2
20260906131526 69 128 0.0 0.0 0.00 0.00 0.00 94 1020.0
20260906130026 68 201 0.0 0.0 0.00 0.00 0.00 94 1020.1
20260906124527 68 201 0.0 0.0 0.00 0.00 0.00 94 1019.8
20260906123030 67 201 0.0 0.0 0.00 0.00 0.00 94 1020.0
20260906121534 66 201 0.0 0.0 0.00 0.00 0.00 94 1019.6
20260906120023 66 201 0.0 0.0 0.00 0.00 0.00 94 1019.4
20260906114532 66 201 0.0 0.0 0.00 0.00 0.00 94 1019.2
20260906113027 66 201 0.0 0.0 0.00 0.00 0.00 94 1018.8
20260906111530 66 201 0.0 0.0 0.00 0.00 0.00 94 1018.6
20260906110027 66 201 0.0 0.0 0.00 0.00 0.00 94 1018.7
20260906104531 66 201 0.0 0.0 0.00 0.00 0.00 94 1018.5
20260906103026 66 201 0.0 0.0 0.00 0.00 0.00 93 1018.3
20260906101534 67 201 0.0 0.0 0.00 0.00 0.00 93 1018.2
20260906100034 67 201 0.0 0.0 0.00 0.00 0.00 93 1018.2
20260906094532 67 201 0.0 0.0 0.00 0.00 0.00 93 1018.0
20260906093029 67 201 0.0 0.0 0.00 0.00 0.00 93 1018.1
20260906091532 67 201 0.0 0.0 0.00 0.00 0.00 93 1018.0
20260906090029 67 201 0.0 0.0 0.00 0.00 0.00 93 1018.0
20260906084532 67 201 0.0 0.0 0.00 0.00 0.00 92 1017.9
20260906083039 68 201 0.0 0.0 0.00 0.01 0.00 92 1017.9
20260906081520 68 201 0.0 0.0 0.00 0.01 0.00 92 1017.9
20260906080016 68 201 0.0 0.0 0.00 0.01 0.00 92 1018.1
20260906074530 69 201 0.0 0.0 0.00 0.01 0.00 92 1018.1
20260906073027 69 201 0.0 0.0 0.00 0.01 0.00 92 1018.1
20260906071528 69 201 0.0 0.0 0.00 0.01 0.00 91 1018.2
20260906070023 69 201 0.0 0.0 0.00 0.01 0.00 91 1018.3
20260906064515 69 201 0.0 0.0 0.00 0.01 0.00 91 1018.2
20260906063015 70 201 0.0 0.0 0.00 0.01 0.00 90 1018.1
20260906061531 70 201 0.0 0.0 0.00 0.01 0.00 90 1018.1
20260906060027 70 201 0.0 0.0 0.00 0.01 0.00 90 1018.1
20260906054529 70 150 0.0 0.0 0.00 0.01 0.00 89 1018.0
20260906053025 71 150 0.0 0.0 0.00 0.01 0.00 89 1018.0
20260906051520 71 135 0.0 0.0 0.00 0.01 0.00 89 1017.9
20260906050017 71 135 0.0 0.0 0.00 0.01 0.00 89 1017.9
20260906044528 71 135 0.0 0.0 0.00 0.01 0.01 89 1017.8
20260906043033 71 135 0.0 0.9 0.00 0.01 0.01 88 1017.6
20260906041534 71 135 0.0 1.7 0.00 0.01 0.01 88 1017.3
20260906040028 72 246 0.0 0.9 0.00 0.01 0.01 87 1017.0
20260906034534 72 314 0.0 1.7 0.00 0.01 0.01 87 1017.0
20260906033020 72 240 0.0 0.9 0.00 0.01 0.01 86 1016.8
20260906031535 72 103 0.0 1.7 0.00 0.01 0.01 86 1017.0
20260906030029 72 120 0.0 2.6 0.00 0.01 0.01 86 1016.9
20260906024531 72 136 0.0 1.7 0.00 0.01 0.01 86 1017.0
20260906023032 72 115 0.9 2.6 0.00 0.01 0.01 86 1017.1
20260906021536 72 113 0.9 3.5 0.00 0.01 0.01 86 1016.9
20260906020036 72 101 0.0 3.5 0.00 0.01 0.01 86 1016.9
20260906014532 72 91 0.0 3.5 0.00 0.01 0.01 86 1017.0
20260906013034 72 116 0.0 2.6 0.00 0.01 0.01 86 1017.1
20260906011535 72 123 0.0 2.6 0.00 0.01 0.01 86 1017.1
20260906010030 72 5 0.0 2.6 0.00 0.01 0.01 86 1017.0
20260906004530 72 122 0.0 2.6 0.00 0.01 0.01 85 1016.8
20260906003035 73 236 0.0 2.6 0.00 0.01 0.01 85 1016.5
20260906001548 73 88 0.0 2.6 0.00 0.01 0.01 85 1016.4
20260906000035 74 98 0.0 2.6 0.00 0.01 0.01 83 1016.2
20260905234533 75 35 0.0 1.7 0.00 0.01 0.01 82 1016.2
20260905233032 76 79 0.0 2.6 0.00 0.01 0.01 82 1016.1
20260905231512 77 71 0.0 2.6 0.00 0.01 0.01 80 1016.0
20260905230006 78 93 0.0 3.5 0.00 0.01 0.01 78 1015.8
20260905224525 80 55 0.0 3.5 0.00 0.01 0.01 76 1015.5
20260905223033 81 92 0.9 3.5 0.00 0.01 0.01 74 1015.4
20260905221521 82 75 0.0 1.7 0.00 0.01 0.01 73 1015.2
20260905220010 83 150 0.0 1.7 0.00 0.01 0.01 74 1015.4
20260905214511 83 184 0.0 1.7 0.00 0.01 0.01 74 1015.4
20260905213006 83 69 0.0 2.6 0.00 0.01 0.01 73 1015.4
20260905211528 82 205 0.0 0.9 0.00 0.01 0.01 77 1015.4
20260905210032 82 104 0.0 1.7 0.00 0.01 0.01 76 1015.5
20260905204519 81 215 0.0 0.9 0.00 0.01 0.01 79 1015.6
20260905203016 79 113 0.0 1.7 0.00 0.01 0.01 82 1015.8
20260905201517 79 162 0.0 1.7 0.00 0.01 0.01 80 1015.8
20260905200008 79 155 0.0 1.7 0.00 0.01 0.01 81 1015.9
20260905194532 80 132 0.0 1.7 0.00 0.01 0.01 79 1015.8
20260905193030 80 138 0.0 1.7 0.00 0.01 0.01 78 1015.8
20260905191522 81 259 0.0 2.6 0.00 0.01 0.01 78 1016.0
20260905190017 82 108 0.0 1.7 0.00 0.01 0.01 76 1016.0
20260905184529 82 209 0.0 2.6 0.00 0.01 0.01 76 1015.9
20260905183039 82 297 0.0 2.6 0.00 0.01 0.01 77 1016.0
20260905181538 82 171 0.0 1.7 0.00 0.01 0.01 77 1016.0
20260905180037 82 69 0.0 2.6 0.00 0.01 0.01 77 1015.9
20260905174523 82 118 0.0 1.7 0.00 0.01 0.01 78 1015.8
20260905173029 82 97 0.0 2.6 0.00 0.01 0.01 78 1015.8
20260905171516 82 26 0.9 2.6 0.00 0.01 0.01 80 1015.8
20260905170035 82 92 0.0 1.7 0.00 0.01 0.01 80 1016.0
20260905164533 82 188 0.0 1.7 0.00 0.01 0.01 80 1016.1
20260905163031 81 225 0.0 2.6 0.00 0.01 0.01 81 1016.1
20260905161525 80 211 0.0 2.6 0.00 0.01 0.01 82 1016.0
20260905160023 80 94 0.9 1.7 0.00 0.01 0.01 83 1016.0
20260905154520 79 88 0.9 2.6 0.00 0.01 0.01 85 1015.9
20260905153037 78 123 0.0 2.6 0.00 0.01 0.01 86 1015.9
20260905151532 78 126 0.0 4.3 0.00 0.01 0.01 87 1015.6
20260905150032 77 101 0.0 2.6 0.00 0.01 0.01 89 1015.5
20260905144528 76 54 0.0 3.5 0.00 0.01 0.01 91 1015.3
20260905143033 75 153 0.0 2.6 0.00 0.01 0.01 93 1015.3
20260905141520 74 215 0.0 1.7 0.00 0.01 0.01 93 1015.3
20260905140035 74 148 0.0 0.9 0.00 0.01 0.01 94 1015.1